Weather History for Casper, WY

Change the Weather History Date:

Friday, January 18, 2013

  Actual Average Record
Temperature  
Mean Temperature 36 °F 25 °F  
Max Temperature 46 °F 35 °F 54 °F (1999)
Min Temperature 25 °F 15 °F -30 °F (1943)
Degree Days  
Heating Degree Days 29 40  
Month to date heating degree days 798 725  
Since 1 July heating degree days 3521 3854  
Cooling Degree Days 0 0  
Month to date cooling degree days 0 0  
Year to date cooling degree days 0 0  
Moisture  
Dew Point 8 °F    
Average Humidity 34    
Maximum Humidity 46    
Minimum Humidity 22    
Precipitation  
Precipitation 0.00 in 0.01 in 0.12 in (1980)
Month to date precipitation 0.11 0.29  
Year to date precipitation 0.11 0.29  
Snow  
Snow 0.00 in 0.30 in - ()
Month to date snowfall 2.2 5.4  
Since 1 July snowfall 20.9 35.9  
Snow Depth 0.00 in    
Sea Level Pressure  
Sea Level Pressure 30.13 in    
Wind  
Wind Speed 25 mph (SW)    
Max Wind Speed 35 mph    
Max Gust Speed 44 mph    
Visibility 10 miles    
Events      
T = Trace of Precipitation, MM = Missing Value Source: NWS Daily Summary

Daily Weather History Graph

Daily Weather History Graph

Search for Another Location

Airport:

Trip Planner

Search our weather history database for the weather conditions in past years. The results will help you decide how hot, cold, wet, or windy it might be!

Date:

Astronomy

Jan. 18, 2013 Rise Set
Actual Time 7:32 AM MST 5:01 PM MST
Civil Twilight 7:01 AM MST 5:32 PM MST
Nautical Twilight 6:26 AM MST 6:07 PM MST
Astronomical Twilight 5:52 AM MST 6:40 PM MST
Moon 10:59 AM MST (1/18) 12:05 AM MST (1/18)
Length of Visible Light 10h 31m
Length of Day
9h 28m
Waxing Crescent, 48% of the Moon is Illuminated
Jan 18
Waxing Crescent
Jan 18
First Quarter
Jan 26
Full
Feb 3
Last Quarter
Feb 10
New

Hourly Weather History & Observations

Time (MST) Temp. Windchill Dew Point Humidity Pressure Visibility Wind Dir Wind Speed Gust Speed Precip Events Conditions
12:53 AM 27.0 °F 12.2 °F 8.1 °F 45% 30.23 in 10.0 mi SW 24.2 mph 33.4 mph N/A   Clear
1:53 AM 27.0 °F 11.9 °F 7.0 °F 43% 30.22 in 10.0 mi SW 25.3 mph 33.4 mph N/A   Clear
2:53 AM 26.1 °F 10.1 °F 7.0 °F 44% 30.20 in 10.0 mi SW 27.6 mph 36.8 mph N/A   Clear
3:53 AM 26.1 °F 10.4 °F 7.0 °F 44% 30.19 in 10.0 mi SW 26.5 mph 35.7 mph N/A   Clear
4:53 AM 28.0 °F 12.5 °F 7.0 °F 41% 30.18 in 10.0 mi SW 28.8 mph 35.7 mph N/A   Clear
5:53 AM 28.0 °F 13.9 °F 6.1 °F 39% 30.17 in 10.0 mi SW 23.0 mph 34.5 mph N/A   Clear
6:53 AM 26.1 °F 10.7 °F 5.0 °F 41% 30.18 in 10.0 mi SSW 25.3 mph 34.5 mph N/A   Clear
7:53 AM 28.0 °F 13.3 °F 5.0 °F 38% 30.18 in 10.0 mi SW 25.3 mph 34.5 mph N/A   Clear
8:53 AM 30.9 °F 16.7 °F 5.0 °F 33% 30.18 in 10.0 mi SW 27.6 mph 39.1 mph N/A   Clear
9:53 AM 34.0 °F 20.5 °F 6.1 °F 31% 30.18 in 10.0 mi SW 28.8 mph 40.3 mph N/A   Clear
10:53 AM 37.9 °F 26.1 °F 7.0 °F 28% 30.16 in - SSW 27.6 mph 40.3 mph N/A   Clear
11:53 AM 39.9 °F 28.4 °F 7.0 °F 26% 30.12 in 10.0 mi SW 29.9 mph 38.0 mph N/A   Clear
12:53 PM 42.1 °F 30.8 °F 8.1 °F 25% 30.07 in 10.0 mi SW 33.4 mph 41.4 mph N/A   Clear
1:53 PM 44.1 °F 34.4 °F 9.0 °F 24% 30.07 in 10.0 mi SSW 27.6 mph 36.8 mph N/A   Clear
2:53 PM 45.0 °F 36.6 °F 10.0 °F 24% 30.05 in 10.0 mi SW 21.9 mph 32.2 mph N/A   Clear
3:53 PM 43.0 °F 32.7 °F 10.0 °F 26% 30.05 in 10.0 mi SSW 28.8 mph 38.0 mph N/A   Clear
4:53 PM 39.0 °F 28.5 °F 10.0 °F 30% 30.06 in 10.0 mi SW 23.0 mph 33.4 mph N/A   Clear
5:53 PM 37.0 °F 25.9 °F 10.9 °F 34% 30.07 in 10.0 mi SW 23.0 mph 33.4 mph N/A   Clear
6:53 PM 36.0 °F 24.4 °F 10.0 °F 34% 30.09 in 10.0 mi SW 23.0 mph 29.9 mph N/A   Clear
7:53 PM 35.1 °F 23.0 °F 10.0 °F 35% 30.08 in 10.0 mi SW 24.2 mph 31.1 mph N/A   Clear
8:53 PM 34.0 °F 22.7 °F 10.0 °F 37% 30.09 in 10.0 mi SW 19.6 mph 28.8 mph N/A   Clear
9:53 PM 34.0 °F 22.4 °F 10.0 °F 37% 30.09 in 10.0 mi SW 20.7 mph 29.9 mph N/A   Clear
10:53 PM 34.0 °F 22.1 °F 9.0 °F 35% 30.08 in 10.0 mi SW 21.9 mph 27.6 mph N/A   Clear
11:53 PM 33.1 °F 21.5 °F 9.0 °F 37% 30.09 in 10.0 mi SSW 19.6 mph 26.5 mph N/A   Clear